Regional Weather Roundup
Issued by NWS

Home | Current Version | Previous Version | Text Only | Print | Product List | Glossary Off
Versions: 1 2 3 4 5 6 7 8 9 10 11 12 13 14 15 16 17 18 19 20 21 22 23 24 25 26 27 28 29 30 31 32 33 34 35 36 37 38 39 40 41 42 43 44 45 46 47 48 49 50

000
ASUS43 KDMX 272208
RWRIA

WEATHER ROUNDUP FOR IOWA
NATIONAL WEATHER SERVICE DES MOINES IA
500 PM CDT WED JUL 27 2016

NOTE: "FAIR" INDICATES FEW OR NO CLOUDS BELOW 12,000 FEET WITH NO
SIGNIFICANT WEATHER AND/OR OBSTRUCTIONS TO VISIBILITY.

* - THESE STATIONS ARE NOT NWS STATIONS...THUS NOT UNDER NWS
QUALITY CONTROL.  THEY ALSO DO NOT REPORT WEATHER SUCH
AS PRECIPITATION OR FOG.

IAZ001>003-012>014-020>022-031>034-043>046-272300-
   NORTHWEST IOWA

CITY           SKY/WX    TMP DP  RH WIND       PRES   REMARKS
CARROLL *      SUNNY     82  70  65 VRB5      29.95F HX  86
CHEROKEE *     SUNNY     85  68  57 NW7       29.96S HX  88
DENISON *      SUNNY     81  70  69 CALM      29.94F HX  84
LE MARS *      MOSUNNY   86  68  54 W8        29.96F HX  89
SHELDON *      MOSUNNY   82  70  65 NW10      29.96S HX  86
SIOUX CITY     MOSUNNY   88  67  49 NE6       29.95F HX  91
SPENCER        MOSUNNY   85  69  58 NW8       29.96S HX  89
STORM LAKE *   CLOUDY    81  70  69 SW7       29.97F HX  84
$$

IAZ055>058-069>071-079>083-090>094-272300-
   SOUTHWEST IOWA

CITY           SKY/WX    TMP DP  RH WIND       PRES   REMARKS
ATLANTIC *     MOSUNNY   81  66  61 CALM      29.96F HX  83
CLARINDA *       N/A     82  73  74 MISG      29.96F HAZE    HX  88
COUNCIL BLFS * MOSUNNY   82  70  65 VRB5      29.96F HX  86
CRESTON *      CLOUDY    77  70  78 NW6       29.97F
HARLAN  *      SUNNY     81  70  69 CALM      30.00S HX  84
LAMONI         PTSUNNY   83  69  62 SW6       29.94F HX  86
RED OAK *      MOSUNNY   81  73  78 SE6       29.96F HX  85
SHENANDOAH *   CLOUDY    84  75  74 N6        29.95F HX  92
$$

IAZ047>049-059>061-072>074-084-272300-
   CENTRAL IOWA

CITY           SKY/WX    TMP DP  RH WIND       PRES   REMARKS
AMES           MOSUNNY   82  70  66 SW3       29.95F HX  86
ANKENY *         N/A    N/A N/A N/A MISG        N/A
BOONE *        MOSUNNY   82  68  61 VRB3      29.95F HX  85
CHARITON *       N/A    N/A N/A N/A MISG        N/A
DES MOINES     CLOUDY    84  69  60 NW5       29.94F HX  88
GRINNELL*      CLOUDY    79  67  67 CALM      29.96F HX  81
KNOXVILLE *    PTSUNNY   84  70  61 N7        29.93F HX  88
MARSHALLTOWN   CLOUDY    80  68  66 W3        29.95F HX  83
NEWTON *       CLOUDY    81  68  65 E3        29.94F HX  83
PELLA *        MOSUNNY   84  68  57 N3        29.94F HX  87
PERRY *          N/A     81  72  72 CALM      29.96F HX  86
$$

IAZ004>006-015-016-023>025-035-036-272300-
   NORTH CENTRAL IOWA

CITY           SKY/WX    TMP DP  RH WIND       PRES   REMARKS
ALGONA *       MOSUNNY   81  72  74 S12G17    29.93F HX  84
ESTHERVILLE    MOSUNNY   82  72  71 NW9       29.95F HX  87
FORT DODGE *   PTSUNNY   82  70  65 S7        29.95F HX  86
MASON CITY     SUNNY     82  64  54 SW13      29.95F HX  83
FOREST CITY *    N/A     79  64  61 S8        29.94F HX  81
IOWA FALLS *     N/A     82  67  60 S6        29.97F HX  84
$$

IAZ007>011-017>019-026>030-037>042-050>054-066-272300-
   NORTHEAST IOWA

CITY           SKY/WX    TMP DP  RH WIND       PRES   REMARKS
CEDAR RAPIDS   MOSUNNY   82  72  71 W7        29.94F HX  87
CHARLES CITY * MOSUNNY   81  70  69 SW8       29.95F HX  84
CLINTON *      PTSUNNY   83  71  67 S3        29.94F HX  87
DECORAH *      MOSUNNY   81  68  65 SW8G15    29.94F HX  83
DUBUQUE        CLOUDY    81  66  60 W3        29.96F HX  83
MONTICELLO *   CLOUDY    82  70  65 CALM      29.93F HX  86
OELWEIN *      PTSUNNY   81  68  65 SW8       29.96F HX  83
WATERLOO       CLOUDY    82  66  58 SW9       29.94F HX  84
$$

IAZ064-065-067-068-078-272300-
   EAST CENTRAL IOWA

CITY           SKY/WX    TMP DP  RH WIND       PRES   REMARKS
DAVENPORT      CLOUDY    84  67  56 SW7       29.94F HX  86
IOWA CITY      CLOUDY    84  68  58 SW6       29.93F HX  87
MT. PLEASANT * MOSUNNY   88  71  56 CALM      29.93F HX  94
MUSCATINE *    CLOUDY    86  68  54 S5        29.92F HX  89
QUAD CITIES    SUNNY     86  68  54 S7        29.92F HX  89
$$

IAZ062-063-075>077-085>089-095>099-272300-
   SOUTHEAST IOWA

CITY           SKY/WX    TMP DP  RH WIND       PRES   REMARKS
BURLINGTON     MOSUNNY   86  70  58 CALM      29.93F HX  90
FAIRFIELD *    MOSUNNY   84  66  54 SW3       29.93F HX  86
KEOKUK *       MOSUNNY   88  68  51 W5        29.92F HX  91
OSKALOOSA *      N/A     83  68  59 W5        29.94F HX  86
CENTERVILLE *    N/A     86  68  54 CALM      29.95F HX  89
OTTUMWA        MOSUNNY   84  67  56 SW5       29.91F HX  86
WASHINGTON *   SUNNY     84  72  65 CALM      29.94F HX  89
$$

ABBREVIATIONS USED IN REMARKS
   TC - TEMPERATURES IN CELSIUS
  WCI - WIND CHILL INDEX
   HX - HEAT INDEX
  VSB - VISIBILITY
$$





USA.gov is the U.S. government's official web portal to all federal, state and local government web resources and services.